TimeCST,TemperatureF,Dew PointF,Humidity,Sea Level PressureIn,VisibilityMPH,Wind Direction,Wind SpeedMPH,Gust SpeedMPH,PrecipitationIn,Events,Conditions,WindDirDegrees,DateUTC
12:41 AM,42.8,39.2,87,30.00,8.0,South,5.8,-,0.02,Rain,Light Rain,170,2013-01-27 06:41:00
12:52 AM,43.0,39.0,86,30.00,9.0,South,6.9,-,0.03,Rain,Light Rain,170,2013-01-27 06:52:00
1:35 AM,42.8,39.2,87,29.96,10.0,South,9.2,-,0.01,Rain,Light Rain,170,2013-01-27 07:35:00
1:52 AM,43.0,39.0,86,29.96,10.0,SSE,10.4,-,0.01,,Overcast,160,2013-01-27 07:52:00
2:52 AM,44.1,39.0,82,29.96,10.0,SSE,9.2,-,N/A,,Overcast,160,2013-01-27 08:52:00
3:52 AM,43.0,37.9,82,29.92,10.0,South,10.4,-,N/A,,Overcast,170,2013-01-27 09:52:00
4:52 AM,43.0,37.0,80,29.89,10.0,South,8.1,-,N/A,,Overcast,170,2013-01-27 10:52:00
5:29 AM,42.8,37.4,81,29.86,10.0,SSE,10.4,18.4,N/A,,Overcast,160,2013-01-27 11:29:00
5:52 AM,43.0,37.9,82,29.88,10.0,South,10.4,-,N/A,,Overcast,170,2013-01-27 11:52:00
6:17 AM,42.8,39.2,87,29.86,8.0,SSE,5.8,-,0.00,Rain,Light Rain,160,2013-01-27 12:17:00
6:52 AM,43.0,39.9,89,29.86,9.0,SSE,9.2,-,0.00,,Overcast,160,2013-01-27 12:52:00
7:07 AM,44.6,39.2,81,29.85,8.0,SSE,6.9,-,N/A,,Overcast,160,2013-01-27 13:07:00
7:52 AM,44.1,42.1,93,29.85,2.5,SSE,5.8,-,N/A,,Overcast,150,2013-01-27 13:52:00
8:08 AM,44.6,42.8,93,29.83,1.5,SSE,5.8,-,0.01,,Overcast,160,2013-01-27 14:08:00
8:52 AM,45.0,43.0,93,29.82,1.2,SE,4.6,-,0.01,,Overcast,140,2013-01-27 14:52:00
9:25 AM,46.4,44.6,93,29.80,2.0,South,10.4,-,N/A,,Overcast,180,2013-01-27 15:25:00
9:40 AM,48.2,46.4,93,29.80,3.0,South,15.0,23.0,N/A,,Overcast,190,2013-01-27 15:40:00
9:52 AM,48.9,46.9,93,29.80,3.0,SSW,11.5,25.3,N/A,,Overcast,200,2013-01-27 15:52:00
10:52 AM,52.0,48.0,86,29.79,5.0,SSW,16.1,25.3,0.01,,Overcast,200,2013-01-27 16:52:00
11:52 AM,53.1,50.0,89,29.77,7.0,SSW,19.6,29.9,N/A,,Overcast,200,2013-01-27 17:52:00
12:52 PM,54.0,50.0,86,29.73,8.0,SSW,18.4,26.5,N/A,,Overcast,200,2013-01-27 18:52:00
1:18 PM,55.4,51.8,88,29.71,9.0,SSW,20.7,29.9,N/A,,Overcast,200,2013-01-27 19:18:00
1:25 PM,55.4,51.8,88,29.71,8.0,SSW,18.4,27.6,N/A,,Overcast,200,2013-01-27 19:25:00
1:52 PM,55.9,51.1,84,29.71,8.0,SSW,19.6,28.8,N/A,,Overcast,210,2013-01-27 19:52:00
1:59 PM,55.4,51.8,88,29.70,8.0,SSW,19.6,28.8,N/A,,Overcast,200,2013-01-27 19:59:00
2:25 PM,57.2,51.8,82,29.70,8.0,SSW,17.3,26.5,N/A,,Overcast,210,2013-01-27 20:25:00
2:52 PM,57.9,52.0,81,29.70,8.0,SSW,18.4,25.3,N/A,,Overcast,210,2013-01-27 20:52:00
3:52 PM,59.0,53.1,81,29.69,8.0,SSW,16.1,23.0,N/A,,Overcast,200,2013-01-27 21:52:00
4:33 PM,60.8,53.6,77,29.69,8.0,SSW,16.1,24.2,N/A,,Scattered Clouds,210,2013-01-27 22:33:00
4:52 PM,61.0,53.1,75,29.70,8.0,SSW,12.7,-,N/A,,Partly Cloudy,210,2013-01-27 22:52:00
5:52 PM,57.9,52.0,81,29.71,8.0,SW,4.6,-,N/A,,Mostly Cloudy,220,2013-01-27 23:52:00
6:52 PM,59.0,48.9,69,29.75,10.0,WNW,6.9,16.1,N/A,,Overcast,290,2013-01-28 00:52:00
7:52 PM,53.1,44.1,71,29.79,10.0,West,6.9,-,N/A,,Overcast,260,2013-01-28 01:52:00
8:52 PM,50.0,43.0,77,29.82,10.0,Calm,Calm,-,N/A,,Overcast,0,2013-01-28 02:52:00
9:52 PM,45.0,39.9,82,29.84,8.0,Calm,Calm,-,N/A,,Partly Cloudy,0,2013-01-28 03:52:00
10:52 PM,44.1,39.9,85,29.84,7.0,Calm,Calm,-,N/A,,Overcast,0,2013-01-28 04:52:00
11:11 PM,44.6,39.2,81,29.84,7.0,Calm,Calm,-,N/A,,Overcast,0,2013-01-28 05:11:00
11:41 PM,41.0,37.4,87,29.83,5.0,Calm,Calm,-,N/A,,Scattered Clouds,0,2013-01-28 05:41:00
11:52 PM,39.9,37.0,89,29.84,4.0,Calm,Calm,-,N/A,,Clear,0,2013-01-28 05:52:00